Regional Weather Roundup
Issued by NWS

Current Version | Previous Version | Text Only | Print | Product List | Glossary On
Versions: 1 2 3 4 5 6 7 8 9 10 11 12 13 14 15 16 17 18 19 20 21 22 23 24 25 26 27
000
ASUS45 KREV 220310
RWRNV
NEVADA REGIONAL WEATHER ROUNDUP
NATIONAL WEATHER SERVICE RENO NV
700 PM PST TUE NOV 21 2017

NOTE: "FAIR" INDICATES FEW OR NO CLOUDS BELOW 12,000 FEET WITH NO
SIGNIFICANT WEATHER AND/OR OBSTRUCTIONS TO VISIBILITY.

NVZ001-003-004-220400-
WESTERN NEVADA

CITY           SKY/WX    TMP DP  RH WIND       PRES   REMARKS
RENO           PTCLDY    58  42  55 NW3       30.29R
CARSON CITY    FAIR      50  41  71 CALM      30.31R
MINDEN         FAIR      45  41  87 E5        30.31R
SLIDE MTN        N/A     41  37  87 SW17        N/A
PYRAMID LAKE     N/A     57 N/A N/A W3          N/A
FALLON         MOCLDY    53  40  61 E7        30.27R
LOVELOCK       MOCLDY    49  38  65 CALM      30.28R
HAWTHORNE      CLEAR     55  37  50 S6        30.29R
$$

NVZ002-CAZ072-073-220400-
NORTHERN AND CENTRAL SIERRA

CITY           SKY/WX    TMP DP  RH WIND       PRES   REMARKS
S. LAKE TAHOE  CLEAR     42  39  89 CALM      30.37R
TRUCKEE        CLEAR     41  37  87 CALM      30.37R
SQUAW VLY 8000   N/A     45  39  81 S8          N/A
SUSANVILLE     CLEAR     48  45  87 W5        30.28R
BLUE CANYON    PTCLDY    58  40  51 SE3       30.33R
MAMMOTH LAKES  FAIR      41  33  73 CALM      30.46R
$$

NVZ030-031-036-220400-
NORTHERN NEVADA

CITY           SKY/WX    TMP DP  RH WIND       PRES   REMARKS
ELKO           MOCLDY    47  42  83 CALM      30.35R
WINNEMUCCA     CLOUDY    51  42  71 CALM      30.29R
WENDOVER       CLOUDY    47  37  68 W7        30.36
$$

NVZ035-037-220400-
CENTRAL NEVADA

CITY           SKY/WX    TMP DP  RH WIND       PRES   REMARKS
ELY            MOCLDY    42  32  67 S6        30.42R
$$

NVZ013-014-220400-
SOUTH CENTRAL NEVADA

CITY           SKY/WX    TMP DP  RH WIND       PRES   REMARKS
TONOPAH        MOCLDY    50  28  42 N7        30.38R
$$

NVZ017-020-022-220400-
SOUTHERN NEVADA

CITY           SKY/WX    TMP DP  RH WIND       PRES   REMARKS
LAS VEGAS      CLOUDY    65  22  19 SW3       30.21R
N. LAS VEGAS   CLOUDY    63  21  20 NW7       30.21S
NELLIS AFB     CLOUDY    60  13  16 NE6       30.20R
HENDERSON      CLOUDY    60  27  28 S6        30.24R
MERCURY        MOCLDY    59  28  30 NE3       30.25R
$$




USA.gov is the U.S. government's official web portal to all federal, state and local government web resources and services.